Burlington, CO

4:51 AM MDT on April 20, 2018 (GMT -0600)
Kit Carson County

Weather History for KITR - March, 2013

Change the Weather History Date:

Wednesday, March 20, 2013

  Actual Average Record
Temperature  
Mean Temperature 34 °F 41 °F  
Max Temperature 55 °F 56 °F 87 °F (1907)
Min Temperature 13 °F 26 °F -2 °F (1927)
Degree Days  
Heating Degree Days 30    
Moisture  
Dew Point 16 °F    
Average Humidity 63    
Maximum Humidity 95    
Minimum Humidity 24    
Precipitation  
Precipitation 0.00 in 0.03 in 0.63 in (1962)
Month to date precipitation 0.18 0.54  
Year to date precipitation 0.67 1.34  
Sea Level Pressure  
Sea Level Pressure 30.15 in    
Wind  
Wind Speed 9 mph (South)    
Max Wind Speed 28 mph    
Max Gust Speed 33 mph    
Visibility 8 miles    
Events Fog    
T = Trace of Precipitation, MM = Missing Value Source: NWS Daily Summary

Daily Weather History Graph

Daily Weather History Graph

Search for Another Location

Airport or City:

Astronomy

Mar. 20, 2013 Rise Set
Actual Time 6:52 AM MDT 7:01 PM MDT
Civil Twilight 6:25 AM MDT 7:28 PM MDT
Nautical Twilight 5:54 AM MDT 7:59 PM MDT
Astronomical Twilight 5:22 AM MDT 8:31 PM MDT
Moon 12:40 PM MDT 2:31 AM MDT
Length of Visible Light 13h 02m
Length of Day
12h 09m
First Quarter, 60% of the Moon is Illuminated
Mar 20
First Quarter
Mar 27
Full
Apr 2
Last Quarter
Apr 10
New
Apr 18
First Quarter

Hourly Weather History & Observations

Time (MDT) Temp. Windchill Dew Point Humidity Pressure Visibility Wind Dir Wind Speed Gust Speed Precip Events Conditions
12:53 AM 21.9 °F 14.5 °F 17.1 °F 82% 30.37 in 10.0 mi NW 5.8 mph - N/A   Clear
1:53 AM 18.0 °F 9.8 °F 15.1 °F 88% 30.39 in 10.0 mi WNW 5.8 mph - N/A   Clear
2:53 AM 19.9 °F 13.4 °F 16.0 °F 85% 30.37 in 10.0 mi NW 4.6 mph - N/A   Clear
3:53 AM 17.1 °F - 14.0 °F 88% 30.35 in 10.0 mi Calm Calm - N/A   Clear
4:53 AM 15.1 °F - 12.9 °F 91% 30.35 in 10.0 mi Calm Calm - N/A   Clear
5:42 AM 14.0 °F 8.2 °F 10.4 °F 86% 30.30 in 10.0 mi WNW 3.5 mph - N/A   Scattered Clouds
5:51 AM 14.0 °F 6.5 °F 10.4 °F 86% 30.30 in 10.0 mi West 4.6 mph - N/A   Mostly Cloudy
5:53 AM 14.0 °F 6.5 °F 10.9 °F 88% 30.36 in 10.0 mi West 4.6 mph - N/A   Mostly Cloudy
6:06 AM 14.0 °F 8.2 °F 10.4 °F 86% 30.29 in 1.8 mi WNW 3.5 mph - N/A   Overcast
6:15 AM 15.8 °F - 12.2 °F 86% 30.29 in 0.2 mi Calm Calm - N/A Fog Light Freezing Fog
6:53 AM 14.0 °F - 12.9 °F 95% 30.36 in 0.5 mi Calm Calm - N/A Fog Light Freezing Fog
7:29 AM 15.8 °F 8.6 °F 12.2 °F 86% 30.27 in 1.2 mi SW 4.6 mph - N/A   Mostly Cloudy
7:36 AM 15.8 °F 8.6 °F 14.0 °F 93% 30.27 in 1.2 mi SW 4.6 mph - N/A   Scattered Clouds
7:51 AM 19.4 °F 14.3 °F 17.6 °F 93% 30.27 in 3.0 mi South 3.5 mph - N/A   Clear
7:53 AM 19.0 °F 12.3 °F 17.1 °F 92% 30.36 in 5.0 mi South 4.6 mph - N/A   Clear
8:53 AM 26.1 °F 12.7 °F 16.0 °F 66% 30.32 in 10.0 mi SSE 18.4 mph - N/A   Clear
9:53 AM 32.0 °F 20.5 °F 16.0 °F 52% 30.30 in 10.0 mi South 18.4 mph - N/A   Clear
10:53 AM 37.9 °F 28.2 °F 17.1 °F 43% 30.25 in 10.0 mi South 18.4 mph 25.3 mph N/A   Clear
11:53 AM 43.0 °F 34.2 °F 17.1 °F 35% 30.18 in 10.0 mi South 20.7 mph 29.9 mph N/A   Clear
12:53 PM 48.0 °F - 17.1 °F 29% 30.12 in 10.0 mi South 23.0 mph 32.2 mph N/A   Clear
1:53 PM 48.0 °F - 17.1 °F 29% 30.08 in 10.0 mi South 24.2 mph 33.4 mph N/A   Clear
2:53 PM 50.0 °F - 17.1 °F 27% 30.00 in 10.0 mi South 27.6 mph 33.4 mph N/A   Clear
3:53 PM 52.0 °F - 18.0 °F 26% 29.96 in 10.0 mi South 21.9 mph 31.1 mph N/A   Clear
4:53 PM 55.0 °F - 19.0 °F 24% 29.91 in 10.0 mi South 24.2 mph 31.1 mph N/A   Clear
5:53 PM 52.0 °F - 19.0 °F 27% 29.90 in 10.0 mi SE 18.4 mph - N/A   Clear
6:53 PM 48.9 °F - 19.0 °F 31% 29.87 in 10.0 mi SE 19.6 mph - N/A   Scattered Clouds
7:53 PM 45.0 °F 38.2 °F 21.0 °F 39% 29.86 in 10.0 mi SSE 15.0 mph - N/A   Scattered Clouds
8:53 PM 43.0 °F 36.0 °F 21.0 °F 42% 29.82 in 10.0 mi SE 13.8 mph - N/A   Partly Cloudy
9:53 PM 39.9 °F 32.1 °F 21.9 °F 49% 29.81 in 10.0 mi SE 13.8 mph - N/A   Clear
10:53 PM 39.0 °F 29.6 °F 23.0 °F 53% 29.75 in 10.0 mi SE 18.4 mph - N/A   Mostly Cloudy
11:53 PM 36.0 °F 26.7 °F 23.0 °F 59% 29.72 in 10.0 mi SE 15.0 mph - N/A   Partly Cloudy